Theta_e
319 320 319 320 324 323 325 326 324 325 325 326 327 327 331 336 337 333 328 327 329 328 323 323 322 323 337 341 340 339 337 336 330 330 324 331 333 333 327 326 325 327 331
317 318 318 319 321 322 322 322 321 321 321 321 322 325 325 326 332 333 330 328 328 327 325 320 323 331 333 337 338 335 333 328 330 327 330 327 322 320 319 321 325 326 323
316 316 316 316 316 317 321 322 322 321 319 319 319 321 322 325 326 329 332 331 326 325 325 319 325 329 333 333 335 330 326 325 323 323 322 322 319 319 320 322 319 320 328
315 315 315 314 314 315 315 315 317 319 317 316 317 318 320 322 324 326 326 323 320 327 324 328 328 331 332 327 332 326 324 322 321 321 319 319 318 318 318 320 319 318 323
315 315 315 315 314 314 314 314 315 317 317 315 317 317 317 320 324 321 322 323 327 327 328 329 330 331 328 324 324 325 323 322 320 318 317 317 316 318 320 320 320 323 323
314 314 314 314 313 313 313 313 313 314 316 317 316 316 316 317 316 318 319 320 323 328 326 327 326 324 323 323 323 324 323 320 318 315 315 315 317 319 319 320 322 323 319
312 312 312 312 311 310 310 311 312 313 315 316 316 315 315 316 315 316 319 317 317 322 326 325 323 322 322 322 323 323 321 316 311 313 316 317 318 318 319 320 320 324 324
311 311 311 310 309 309 309 309 308 308 312 316 316 316 315 315 316 317 317 316 319 320 324 324 323 322 321 321 320 319 319 317 315 318 318 319 318 318 318 319 321 317 317
311 310 310 310 309 308 307 306 307 307 307 308 313 316 316 314 314 316 319 319 317 317 321 323 324 324 323 322 321 320 320 320 321 320 320 319 318 318 318 318 315 315 316
309 309 308 308 307 307 307 306 305 306 306 307 308 312 316 317 316 316 316 315 317 320 320 321 321 319 323 320 323 323 323 323 322 322 320 319 319 319 317 314 316 316 317
307 307 307 307 306 306 305 305 305 305 305 305 307 307 311 314 315 316 318 318 317 318 320 319 318 317 316 320 316 324 324 323 323 323 321 320 320 318 314 314 316 317 319
303 303 304 305 305 305 305 304 303 303 304 304 306 306 307 309 313 314 315 315 315 317 318 319 320 319 317 315 322 321 325 324 323 323 321 320 318 317 315 314 315 316 316
300 300 301 301 302 304 303 303 303 303 303 303 304 305 306 307 309 312 313 313 313 313 316 317 319 320 317 318 318 323 325 325 325 322 320 320 319 318 315 316 316 316 316
298 298 298 300 301 302 302 302 302 302 302 302 303 304 304 305 307 308 311 312 312 313 313 314 316 320 322 322 321 322 322 321 323 322 322 321 318 316 316 316 316 317 319
297 298 298 298 299 300 301 301 301 301 301 302 302 302 302 303 305 307 308 309 306 305 307 312 314 317 319 320 320 320 319 317 318 319 319 318 317 316 316 316 317 318 322
295 296 298 299 299 299 299 300 301 301 301 301 301 302 302 303 303 305 305 306 305 305 304 304 312 315 317 319 319 319 319 318 318 318 318 318 316 315 316 317 317 317 322
293 294 294 296 297 298 299 299 299 299 299 300 301 301 301 301 302 302 302 303 303 302 302 302 304 312 317 318 318 319 320 320 319 317 317 317 317 318 317 317 317 319 322
292 292 292 293 295 295 296 296 297 297 297 298 299 300 300 301 301 301 301 301 300 301 302 303 304 306 315 318 318 318 319 319 318 317 317 318 318 317 317 317 318 322 323
291 291 292 293 294 294 295 295 295 295 296 296 297 296 296 297 298 298 299 299 300 301 302 303 304 305 308 317 318 318 318 318 318 318 318 318 318 318 318 318 320 323 324
290 290 291 292 292 293 294 294 294 294 294 295 295 294 294 295 296 297 297 298 299 300 301 302 304 305 307 314 317 317 317 318 319 319 318 318 318 317 318 320 323 324 325
292 292 292 292 293 293 294 294 295 294 294 295 295 296 294 295 297 298 298 297 298 300 300 302 303 304 306 310 314 315 315 315 316 316 316 315 314 316 318 321 322 324 326
297 296 295 295 296 296 297 297 297 297 297 297 297 297 296 295 297 298 299 299 299 300 300 301 303 304 305 310 311 312 312 315 316 318 318 318 318 319 319 320 322 325 326
301 301 301 301 301 302 302 302 303 303 303 302 300 299 297 297 297 298 300 300 300 301 301 302 303 304 305 310 311 311 312 312 313 315 316 316 317 319 322 324 324 326 325
297 298 299 299 299 299 298 299 299 300 301 304 303 301 299 298 298 299 301 301 301 302 302 303 304 305 307 309 310 310 311 311 311 311 311 313 315 316 321 323 326 325 326
294 294 294 294 294 295 295 295 295 296 298 300 304 302 301 300 301 302 302 302 302 303 304 304 306 308 308 308 308 309 309 312 312 314 314 316 318 322 324 326 325 324 323
290 291 291 291 291 291 292 292 292 293 294 296 298 301 305 304 304 303 303 303 304 304 305 305 306 307 308 308 308 308 309 311 314 314 315 318 322 324 325 326 325 323 319
Wind_Speed
8 5 9 11 12 13 14 15 20 24 26 26 24 23 21 25 31 31 34 32 32 29 12 10 24 40 31 27 17 17 22 17 6 11 18 12 17 10 10 13 14 15 21
7 7 7 8 9 12 17 17 20 24 27 28 27 26 25 22 25 31 32 29 35 36 31 18 8 33 33 25 14 13 12 11 11 7 7 2 3 8 11 17 19 17 19
9 7 8 11 16 16 17 20 25 30 32 32 30 26 24 20 19 27 33 34 33 36 34 29 33 33 28 17 13 10 16 13 10 7 5 2 6 10 11 10 17 16 12
13 13 12 13 18 22 23 25 29 33 32 34 35 25 23 20 17 7 20 29 24 30 33 34 35 31 30 31 25 19 14 9 9 5 1 4 5 9 12 15 21 20 16
14 14 14 16 20 21 22 26 28 33 35 33 32 25 20 19 8 16 13 13 29 18 23 29 36 36 33 30 24 18 14 11 10 6 1 1 5 7 10 11 18 22 24
15 15 19 21 24 27 29 31 32 32 34 35 32 30 25 26 19 17 17 22 26 22 21 20 25 22 21 21 18 16 15 16 12 9 6 6 8 8 8 13 15 15 4
15 16 16 16 17 18 19 22 23 28 32 31 34 31 30 27 25 22 14 13 34 23 18 24 25 23 21 22 22 20 17 15 13 11 9 14 13 7 9 13 17 17 15
20 20 21 21 23 25 24 25 27 26 22 29 32 30 28 28 21 18 11 13 19 27 12 22 27 27 27 25 25 25 24 21 17 14 15 15 14 9 11 14 18 23 25
21 22 22 21 22 22 24 24 27 27 26 25 25 31 27 29 26 23 16 18 25 31 16 15 6 11 22 25 25 24 21 21 19 18 15 11 11 10 11 15 21 16 8
21 24 24 23 24 25 28 29 30 28 28 27 22 24 27 27 25 20 23 23 27 27 16 20 23 17 18 13 27 25 23 26 20 16 14 9 8 10 12 17 21 19 9
21 22 24 26 26 26 28 29 29 28 31 30 27 23 23 19 22 22 19 24 25 22 18 18 18 26 31 35 34 30 32 28 22 19 13 13 13 16 19 17 20 21 17
26 28 29 30 31 31 33 26 25 25 28 25 24 22 22 22 16 22 21 20 23 20 20 24 24 23 32 38 37 44 30 30 22 18 16 16 17 20 21 21 20 23 26
28 28 28 30 33 28 23 24 27 27 25 23 23 22 24 20 18 18 22 22 26 25 27 25 27 28 35 45 52 35 33 33 27 22 22 23 23 22 20 21 23 25 26
29 28 28 27 26 22 22 24 25 25 23 23 22 19 19 21 21 21 18 21 25 24 28 29 26 28 27 23 11 17 26 29 28 28 28 27 21 17 19 24 24 24 23
29 28 27 25 25 25 24 21 24 28 28 25 24 24 22 21 23 22 21 18 3 7 9 19 22 23 18 15 14 15 16 19 25 25 26 24 20 19 24 25 23 20 18
26 23 22 23 23 21 22 24 25 30 31 34 34 32 25 22 24 14 11 11 6 7 13 8 10 19 20 20 21 19 19 19 25 28 27 24 21 23 27 25 22 21 19
25 25 23 22 19 18 17 17 15 22 28 32 32 33 34 32 28 21 16 15 16 16 8 14 12 11 18 20 20 20 22 23 24 26 27 26 22 25 26 25 25 21 17
26 26 25 23 22 21 20 21 22 19 14 22 25 29 34 34 31 30 28 28 19 15 12 14 14 15 13 21 21 19 20 24 25 27 28 26 28 29 24 24 22 19 15
26 25 23 24 23 22 22 21 21 21 21 23 21 24 29 33 35 36 37 28 22 18 17 17 18 17 16 20 19 20 23 19 26 28 29 27 28 27 25 22 19 17 14
25 25 26 24 22 21 20 19 19 19 20 20 19 19 20 23 23 25 25 26 26 28 22 21 19 19 17 16 24 24 14 18 20 25 21 14 15 18 18 18 16 15 15
22 21 22 21 19 19 19 18 18 17 18 18 21 21 23 22 19 19 20 26 30 27 24 23 22 19 16 18 6 10 22 14 10 11 10 10 14 17 15 14 16 15 16
20 17 18 16 17 16 18 18 16 17 18 17 17 17 24 25 19 18 19 20 24 26 25 24 22 22 23 19 16 10 5 3 2 1 6 10 15 17 18 20 20 18 18
19 15 13 13 14 14 14 13 11 10 10 13 15 14 17 19 18 17 18 19 21 23 26 27 26 26 22 12 10 12 9 7 8 9 11 14 18 19 19 21 20 19 16
20 20 19 18 20 16 16 15 16 17 17 13 9 10 13 15 16 15 15 18 21 21 26 28 27 26 25 18 12 15 13 9 15 21 25 23 25 29 25 22 20 16 9
22 22 22 21 19 19 18 19 19 19 18 18 12 9 8 10 11 14 17 17 19 20 23 28 27 24 24 25 26 21 18 15 15 18 21 22 27 24 21 17 14 10 15
25 23 22 22 22 21 20 19 20 20 20 20 19 17 9 7 9 11 12 13 16 19 20 26 26 22 21 25 25 24 23 24 21 23 23 23 20 18 15 18 19 21 21
Wind_Direction
57 24 354 339 323 312 328 324 330 323 316 307 309 319 333 304 283 245 237 228 229 233 238 257 265 276 245 225 201 209 216 211 192 252 278 279 274 278 301 309 306 296 284
311 324 336 338 321 299 295 313 315 316 321 329 315 306 314 331 295 261 243 224 225 234 228 216 182 242 233 225 205 170 184 222 196 201 238 251 310 328 323 319 332 315 289
334 318 322 319 320 319 303 301 299 298 301 307 319 326 325 321 325 274 242 234 224 214 209 215 184 196 230 228 232 184 151 148 137 145 183 212 320 350 351 338 339 356 341
294 298 287 293 298 301 304 304 297 291 297 302 300 309 319 319 339 325 272 237 232 207 206 203 207 210 201 217 199 175 159 156 132 132 152 38 348 337 333 340 333 335 323
281 293 298 293 284 283 291 292 291 284 286 292 296 293 306 315 316 329 -0 294 240 214 214 204 207 204 187 185 180 173 175 154 150 148 193 286 284 319 316 329 332 324 321
275 296 298 292 291 293 292 288 287 282 280 279 284 288 281 288 311 308 309 357 320 216 215 201 181 185 185 185 188 192 198 185 186 179 195 227 245 257 308 324 321 312 320
273 279 277 287 297 302 312 314 312 298 284 277 280 284 286 280 291 306 284 327 295 318 213 188 178 181 185 188 192 193 193 205 220 210 206 233 245 273 306 305 299 293 282
259 262 264 269 278 286 291 295 301 302 318 293 277 276 279 280 275 282 268 260 265 300 274 194 184 185 191 196 194 199 209 219 215 222 233 251 269 309 295 291 295 299 299
263 261 261 261 268 273 276 283 288 295 297 298 304 282 274 277 278 259 254 277 281 270 280 238 233 206 204 217 215 217 223 229 227 231 240 255 285 287 286 287 298 302 303
276 274 272 267 262 263 268 275 282 285 284 285 290 298 285 272 276 275 249 255 267 268 268 244 236 247 279 308 222 225 222 234 226 216 215 239 244 269 283 297 291 282 274
315 308 298 281 273 277 277 272 269 272 278 274 268 275 290 278 286 273 260 243 238 256 254 239 219 222 262 269 284 232 229 237 226 220 223 230 244 267 292 301 295 286 271
295 291 287 283 279 277 270 265 268 271 270 273 274 267 272 272 270 276 279 278 275 263 248 249 242 221 215 270 263 248 245 242 236 222 209 225 248 275 291 300 296 290 295
293 289 288 286 278 268 263 262 266 261 260 265 260 259 259 262 262 260 273 275 275 278 267 265 250 234 227 231 241 246 251 246 234 215 216 237 254 278 291 290 291 298 303
288 286 285 282 279 271 262 263 259 257 256 258 258 259 259 260 256 252 259 268 268 266 260 260 256 248 250 252 238 251 248 242 235 225 229 245 260 267 274 287 293 303 296
287 284 281 276 272 269 259 257 259 257 253 255 256 258 256 254 256 253 249 257 294 355 288 250 243 239 236 242 248 255 259 242 226 227 228 237 245 260 277 285 289 289 268
293 291 288 279 268 258 260 265 258 259 260 259 258 255 258 264 263 240 199 218 232 322 352 355 251 225 225 224 233 234 232 232 225 223 224 229 240 261 267 277 271 283 270
292 291 290 290 286 276 265 262 271 266 259 260 259 258 260 258 249 263 256 247 274 292 317 311 302 272 218 218 224 224 217 225 231 219 220 231 240 250 257 259 271 275 268
287 282 279 278 274 269 260 253 255 256 261 257 252 250 252 255 255 254 257 266 270 259 253 265 283 296 269 219 223 223 219 218 219 218 222 221 233 242 246 251 258 252 272
288 283 279 276 271 266 264 256 251 255 256 259 255 245 244 247 249 249 249 244 246 245 229 236 250 271 289 241 229 230 234 229 218 217 226 226 239 245 243 247 253 248 268
283 276 273 274 274 270 266 261 256 248 248 249 246 237 230 229 233 231 228 227 224 226 222 222 230 245 272 261 223 233 231 229 228 228 230 225 242 247 249 254 242 257 270
288 281 277 272 269 267 265 259 256 250 248 243 244 236 220 217 223 212 213 214 220 219 218 216 220 235 261 254 206 218 238 232 197 200 211 248 270 265 256 259 263 257 269
301 284 282 281 281 276 272 270 262 251 250 246 242 231 219 213 214 216 210 209 213 212 212 208 213 225 238 249 237 201 170 118 148 147 231 250 261 258 264 264 259 254 256
-0 352 345 352 2 3 -0 360 353 0 316 248 232 203 196 198 203 216 205 197 199 198 197 199 208 219 226 232 197 193 187 206 232 257 262 273 280 272 270 263 251 241 232
11 11 5 6 11 11 10 5 4 4 6 12 49 161 171 178 186 206 189 187 191 194 193 198 201 209 209 220 221 217 225 249 257 259 263 272 276 283 265 256 241 201 181
16 17 16 16 14 12 12 11 11 8 10 17 45 88 131 158 181 183 184 187 193 195 188 197 199 200 201 214 226 232 226 245 256 256 256 268 270 270 257 240 184 168 159
21 22 18 18 18 15 20 16 14 11 12 14 22 44 85 143 170 183 186 188 186 191 192 195 201 206 206 212 220 228 235 231 249 263 263 270 266 260 239 182 166 162 155